owner,sensor,date,latitude,longitude,vertical_datum,wind_speed,wind_to_direction,wind_speed_of_gust,qcFlag 
COMPS,ioos:station:USF.COMPS:TAR:1,2014-06-01T00:00:00Z,28.1560,-82.7580,7.0,1.45,30.84,2.15,'1111122,1111122,1111122' 
COMPS,ioos:station:USF.COMPS:TAR:1,2014-06-01T00:06:00Z,28.1560,-82.7580,7.0,1.72,36.38,2.35,'1111122,1111122,1111122' 
COMPS,ioos:station:USF.COMPS:TAR:1,2014-06-01T00:12:00Z,28.1560,-82.7580,7.0,1.18,37.33,1.76,'1111122,1111122,1111122' 
COMPS,ioos:station:USF.COMPS:TAR:1,2014-06-01T00:18:00Z,28.1560,-82.7580,7.0,1.29,43.86,2.64,'1111122,1111122,1111122' 
COMPS,ioos:station:USF.COMPS:TAR:1,2014-06-01T00:24:00Z,28.1560,-82.7580,7.0,0.94,96.7,1.95,'1111122,1111122,1111122' 
COMPS,ioos:station:USF.COMPS:TAR:1,2014-06-01T00:30:00Z,28.1560,-82.7580,7.0,0.77,123.69,1.46,'1111122,1111122,1111122' 
COMPS,ioos:station:USF.COMPS:TAR:1,2014-06-01T00:36:00Z,28.1560,-82.7580,7.0,0.64,106.2,1.66,'1111122,1111122,1111122' 
COMPS,ioos:station:USF.COMPS:TAR:1,2014-06-01T00:42:00Z,28.1560,-82.7580,7.0,0.69,103.26,1.17,'1111122,1111122,1111122' 
COMPS,ioos:station:USF.COMPS:TAR:1,2014-06-01T00:48:00Z,28.1560,-82.7580,7.0,0.65,120.83,1.27,'1111122,1111122,1111122' 
COMPS,ioos:station:USF.COMPS:TAR:1,2014-06-01T00:54:00Z,28.1560,-82.7580,7.0,0.85,98.93,1.46,'1111122,1111122,1111122' 
COMPS,ioos:station:USF.COMPS:TAR:1,2014-06-01T01:00:00Z,28.1560,-82.7580,7.0,0.68,110.2,1.56,'1111122,1111122,1111122' 
COMPS,ioos:station:USF.COMPS:TAR:1,2014-06-01T01:06:00Z,28.1560,-82.7580,7.0,0.69,62.17,1.27,'1111122,1111122,1111122' 
COMPS,ioos:station:USF.COMPS:TAR:1,2014-06-01T01:12:00Z,28.1560,-82.7580,7.0,0.38,73.11,1.27,'1111122,1111122,1111122' 
COMPS,ioos:station:USF.COMPS:TAR:1,2014-06-01T01:18:00Z,28.1560,-82.7580,7.0,1.05,47.21,1.66,'1111122,1111122,1111122' 
COMPS,ioos:station:USF.COMPS:TAR:1,2014-06-01T01:24:00Z,28.1560,-82.7580,7.0,1.63,42.53,2.35,'1111122,1111122,1111122' 
COMPS,ioos:station:USF.COMPS:TAR:1,2014-06-01T01:30:00Z,28.1560,-82.7580,7.0,1.58,41.85,2.25,'1111122,1111122,1111122' 
COMPS,ioos:station:USF.COMPS:TAR:1,2014-06-01T01:36:00Z,28.1560,-82.7580,7.0,1.37,31.36,2.35,'1111122,1111122,1111122' 
COMPS,ioos:station:USF.COMPS:TAR:1,2014-06-01T01:42:00Z,28.1560,-82.7580,7.0,0.68,46.15,1.56,'1111122,1111122,1111122' 
COMPS,ioos:station:USF.COMPS:TAR:1,2014-06-01T01:48:00Z,28.1560,-82.7580,7.0,0.68,57.68,1.56,'1111122,1111122,1111122' 
COMPS,ioos:station:USF.COMPS:TAR:1,2014-06-01T01:54:00Z,28.1560,-82.7580,7.0,0.57,96.91,1.56,'1111122,1111122,1111122' 
COMPS,ioos:station:USF.COMPS:TAR:1,2014-06-01T02:00:00Z,28.1560,-82.7580,7.0,0.98,183.31,1.56,'1111122,1111122,1111122' 
COMPS,ioos:station:USF.COMPS:TAR:1,2014-06-01T02:06:00Z,28.1560,-82.7580,7.0,0.53,203.98,0.88,'1111122,1111122,1111122' 
COMPS,ioos:station:USF.COMPS:TAR:1,2014-06-01T02:12:00Z,28.1560,-82.7580,7.0,0.67,162.82,1.17,'1111122,1111122,1111122' 
COMPS,ioos:station:USF.COMPS:TAR:1,2014-06-01T02:18:00Z,28.1560,-82.7580,7.0,0.37,196.83,0.88,'1111122,1111122,1111122' 
COMPS,ioos:station:USF.COMPS:TAR:1,2014-06-01T02:24:00Z,28.1560,-82.7580,7.0,0.71,43.61,1.27,'1111122,1111122,1111122' 
COMPS,ioos:station:USF.COMPS:TAR:1,2014-06-01T02:30:00Z,28.1560,-82.7580,7.0,1.1,19.6,1.56,'1111122,1111122,1111122' 
COMPS,ioos:station:USF.COMPS:TAR:1,2014-06-01T02:36:00Z,28.1560,-82.7580,7.0,1.33,36.75,1.86,'1111122,1111122,1111122' 
COMPS,ioos:station:USF.COMPS:TAR:1,2014-06-01T02:42:00Z,28.1560,-82.7580,7.0,1.29,39.14,1.86,'1111122,1111122,1111122' 
COMPS,ioos:station:USF.COMPS:TAR:1,2014-06-01T02:48:00Z,28.1560,-82.7580,7.0,1.22,54.74,2.84,'1111122,1111122,1111122' 
COMPS,ioos:station:USF.COMPS:TAR:1,2014-06-01T02:54:00Z,28.1560,-82.7580,7.0,0.69,59.15,1.46,'1111122,1111122,1111122' 
COMPS,ioos:station:USF.COMPS:TAR:1,2014-06-01T03:00:00Z,28.1560,-82.7580,7.0,0.97,54.52,1.95,'1111122,1111122,1111122' 
COMPS,ioos:station:USF.COMPS:TAR:1,2014-06-01T03:06:00Z,28.1560,-82.7580,7.0,0.93,82.24,1.86,'1111122,1111122,1111122' 
COMPS,ioos:station:USF.COMPS:TAR:1,2014-06-01T03:12:00Z,28.1560,-82.7580,7.0,0.91,85.23,1.46,'1111122,1111122,1111122' 
COMPS,ioos:station:USF.COMPS:TAR:1,2014-06-01T03:18:00Z,28.1560,-82.7580,7.0,0.68,97.06,1.27,'1111122,1111122,1111122' 
COMPS,ioos:station:USF.COMPS:TAR:1,2014-06-01T03:24:00Z,28.1560,-82.7580,7.0,0.78,113.0,1.66,'1111122,1111122,1111122' 
COMPS,ioos:station:USF.COMPS:TAR:1,2014-06-01T03:30:00Z,28.1560,-82.7580,7.0,0.64,127.69,1.56,'1111122,1111122,1111122' 
COMPS,ioos:station:USF.COMPS:TAR:1,2014-06-01T03:36:00Z,28.1560,-82.7580,7.0,0.92,115.97,1.76,'1111122,1111122,1111122' 
COMPS,ioos:station:USF.COMPS:TAR:1,2014-06-01T03:42:00Z,28.1560,-82.7580,7.0,0.85,103.26,1.66,'1111122,1111122,1111122' 
COMPS,ioos:station:USF.COMPS:TAR:1,2014-06-01T03:48:00Z,28.1560,-82.7580,7.0,0.9,93.36,1.66,'1111122,1111122,1111122' 
COMPS,ioos:station:USF.COMPS:TAR:1,2014-06-01T03:54:00Z,28.1560,-82.7580,7.0,1.01,97.93,2.25,'1111122,1111122,1111122' 
COMPS,ioos:station:USF.COMPS:TAR:1,2014-06-01T04:00:00Z,28.1560,-82.7580,7.0,0.92,111.44,2.05,'1111122,1111122,1111122' 
COMPS,ioos:station:USF.COMPS:TAR:1,2014-06-01T04:06:00Z,28.1560,-82.7580,7.0,1.05,109.13,2.25,'1111122,1111122,1111122' 
COMPS,ioos:station:USF.COMPS:TAR:1,2014-06-01T04:12:00Z,28.1560,-82.7580,7.0,0.76,105.15,1.56,'1111122,1111122,1111122' 
COMPS,ioos:station:USF.COMPS:TAR:1,2014-06-01T04:18:00Z,28.1560,-82.7580,7.0,0.84,113.33,1.86,'1111122,1111122,1111122' 
COMPS,ioos:station:USF.COMPS:TAR:1,2014-06-01T04:24:00Z,28.1560,-82.7580,7.0,0.68,106.04,1.66,'1111122,1111122,1111122' 
COMPS,ioos:station:USF.COMPS:TAR:1,2014-06-01T04:30:00Z,28.1560,-82.7580,7.0,1.13,90.4,1.86,'1111122,1111122,1111122' 
COMPS,ioos:station:USF.COMPS:TAR:1,2014-06-01T04:36:00Z,28.1560,-82.7580,7.0,0.81,106.14,1.66,'1111122,1111122,1111122' 
COMPS,ioos:station:USF.COMPS:TAR:1,2014-06-01T04:42:00Z,28.1560,-82.7580,7.0,0.75,102.94,1.76,'1111122,1111122,1111122' 
COMPS,ioos:station:USF.COMPS:TAR:1,2014-06-01T04:48:00Z,28.1560,-82.7580,7.0,1.16,99.16,1.76,'1111122,1111122,1111122' 
COMPS,ioos:station:USF.COMPS:TAR:1,2014-06-01T04:54:00Z,28.1560,-82.7580,7.0,0.87,110.18,1.46,'1111122,1111122,1111122' 
COMPS,ioos:station:USF.COMPS:TAR:1,2014-06-01T05:00:00Z,28.1560,-82.7580,7.0,0.67,89.71,1.17,'1111122,1111122,1111122' 
COMPS,ioos:station:USF.COMPS:TAR:1,2014-06-01T05:06:00Z,28.1560,-82.7580,7.0,0.74,67.8,1.37,'1111122,1111122,1111122' 
COMPS,ioos:station:USF.COMPS:TAR:1,2014-06-01T05:12:00Z,28.1560,-82.7580,7.0,0.64,71.08,1.27,'1111122,1111122,1111122' 
COMPS,ioos:station:USF.COMPS:TAR:1,2014-06-01T05:18:00Z,28.1560,-82.7580,7.0,0.69,91.11,1.76,'1111122,1111122,1111122' 
COMPS,ioos:station:USF.COMPS:TAR:1,2014-06-01T05:24:00Z,28.1560,-82.7580,7.0,0.88,88.81,1.86,'1111122,1111122,1111122' 
COMPS,ioos:station:USF.COMPS:TAR:1,2014-06-01T05:30:00Z,28.1560,-82.7580,7.0,0.32,73.89,0.88,'1111122,1111122,1111122' 
COMPS,ioos:station:USF.COMPS:TAR:1,2014-06-01T05:36:00Z,28.1560,-82.7580,7.0,0.6,62.53,1.37,'1111122,1111122,1111122' 
COMPS,ioos:station:USF.COMPS:TAR:1,2014-06-01T05:42:00Z,28.1560,-82.7580,7.0,0.93,59.8,2.15,'1111122,1111122,1111122' 
COMPS,ioos:station:USF.COMPS:TAR:1,2014-06-01T05:48:00Z,28.1560,-82.7580,7.0,0.7,101.88,1.76,'1111122,1111122,1111122' 
COMPS,ioos:station:USF.COMPS:TAR:1,2014-06-01T05:54:00Z,28.1560,-82.7580,7.0,0.9,94.65,1.56,'1111122,1111122,1111122' 
COMPS,ioos:station:USF.COMPS:TAR:1,2014-06-01T06:00:00Z,28.1560,-82.7580,7.0,0.87,99.57,1.37,'1111122,1111122,1111122' 
COMPS,ioos:station:USF.COMPS:TAR:1,2014-06-01T06:06:00Z,28.1560,-82.7580,7.0,0.63,93.62,1.37,'1111122,1111122,1111122' 
COMPS,ioos:station:USF.COMPS:TAR:1,2014-06-01T06:12:00Z,28.1560,-82.7580,7.0,0.91,101.13,1.76,'1111122,1111122,1111122' 
COMPS,ioos:station:USF.COMPS:TAR:1,2014-06-01T06:18:00Z,28.1560,-82.7580,7.0,1.08,96.65,1.76,'1111122,1111122,1111122' 
COMPS,ioos:station:USF.COMPS:TAR:1,2014-06-01T06:24:00Z,28.1560,-82.7580,7.0,1.17,94.13,1.95,'1111122,1111122,1111122' 
COMPS,ioos:station:USF.COMPS:TAR:1,2014-06-01T06:30:00Z,28.1560,-82.7580,7.0,1.06,94.68,1.95,'1111122,1111122,1111122' 
COMPS,ioos:station:USF.COMPS:TAR:1,2014-06-01T06:36:00Z,28.1560,-82.7580,7.0,0.75,81.86,1.17,'1111122,1111122,1111122' 
COMPS,ioos:station:USF.COMPS:TAR:1,2014-06-01T06:42:00Z,28.1560,-82.7580,7.0,1.07,85.52,1.66,'1111122,1111122,1111122' 
COMPS,ioos:station:USF.COMPS:TAR:1,2014-06-01T06:48:00Z,28.1560,-82.7580,7.0,1.15,53.83,1.86,'1111122,1111122,1111122' 
COMPS,ioos:station:USF.COMPS:TAR:1,2014-06-01T06:54:00Z,28.1560,-82.7580,7.0,1.62,39.24,2.74,'1111122,1111122,1111122' 
COMPS,ioos:station:USF.COMPS:TAR:1,2014-06-01T07:00:00Z,28.1560,-82.7580,7.0,0.74,72.98,1.46,'1111122,1111122,1111122' 
COMPS,ioos:station:USF.COMPS:TAR:1,2014-06-01T07:06:00Z,28.1560,-82.7580,7.0,0.97,68.42,2.15,'1111122,1111122,1111122' 
COMPS,ioos:station:USF.COMPS:TAR:1,2014-06-01T07:12:00Z,28.1560,-82.7580,7.0,0.99,74.52,2.05,'1111122,1111122,1111122' 
COMPS,ioos:station:USF.COMPS:TAR:1,2014-06-01T07:18:00Z,28.1560,-82.7580,7.0,1.14,79.75,1.86,'1111122,1111122,1111122' 
COMPS,ioos:station:USF.COMPS:TAR:1,2014-06-01T07:24:00Z,28.1560,-82.7580,7.0,0.93,68.11,1.95,'1111122,1111122,1111122' 
COMPS,ioos:station:USF.COMPS:TAR:1,2014-06-01T07:30:00Z,28.1560,-82.7580,7.0,1.24,59.49,2.05,'1111122,1111122,1111122' 
COMPS,ioos:station:USF.COMPS:TAR:1,2014-06-01T07:36:00Z,28.1560,-82.7580,7.0,1.38,74.89,2.35,'1111122,1111122,1111122' 
COMPS,ioos:station:USF.COMPS:TAR:1,2014-06-01T07:42:00Z,28.1560,-82.7580,7.0,1.03,71.76,2.45,'1111122,1111122,1111122' 
COMPS,ioos:station:USF.COMPS:TAR:1,2014-06-01T07:48:00Z,28.1560,-82.7580,7.0,1.4,49.83,2.74,'1111122,1111122,1111122' 
COMPS,ioos:station:USF.COMPS:TAR:1,2014-06-01T07:54:00Z,28.1560,-82.7580,7.0,1.83,53.7,3.82,'1111122,1111122,1111122' 
COMPS,ioos:station:USF.COMPS:TAR:1,2014-06-01T08:00:00Z,28.1560,-82.7580,7.0,1.61,78.98,3.03,'1111122,1111122,1111122' 
COMPS,ioos:station:USF.COMPS:TAR:1,2014-06-01T08:06:00Z,28.1560,-82.7580,7.0,1.45,75.88,2.54,'1111122,1111122,1111122' 
COMPS,ioos:station:USF.COMPS:TAR:1,2014-06-01T08:12:00Z,28.1560,-82.7580,7.0,1.59,75.48,2.54,'1111122,1111122,1111122' 
COMPS,ioos:station:USF.COMPS:TAR:1,2014-06-01T08:18:00Z,28.1560,-82.7580,7.0,1.41,76.49,2.54,'1111122,1111122,1111122' 
COMPS,ioos:station:USF.COMPS:TAR:1,2014-06-01T08:24:00Z,28.1560,-82.7580,7.0,1.41,74.53,2.54,'1111122,1111122,1111122' 
COMPS,ioos:station:USF.COMPS:TAR:1,2014-06-01T08:30:00Z,28.1560,-82.7580,7.0,1.32,84.17,2.45,'1111122,1111122,1111122' 
COMPS,ioos:station:USF.COMPS:TAR:1,2014-06-01T08:36:00Z,28.1560,-82.7580,7.0,1.2,75.29,2.35,'1111122,1111122,1111122' 
COMPS,ioos:station:USF.COMPS:TAR:1,2014-06-01T08:42:00Z,28.1560,-82.7580,7.0,1.17,86.21,2.45,'1111122,1111122,1111122' 
COMPS,ioos:station:USF.COMPS:TAR:1,2014-06-01T08:48:00Z,28.1560,-82.7580,7.0,1.01,88.04,2.15,'1111122,1111122,1111122' 
COMPS,ioos:station:USF.COMPS:TAR:1,2014-06-01T08:54:00Z,28.1560,-82.7580,7.0,0.93,86.12,1.76,'1111122,1111122,1111122' 
COMPS,ioos:station:USF.COMPS:TAR:1,2014-06-01T09:00:00Z,28.1560,-82.7580,7.0,1.11,70.3,2.15,'1111122,1111122,1111122' 
COMPS,ioos:station:USF.COMPS:TAR:1,2014-06-01T09:06:00Z,28.1560,-82.7580,7.0,0.99,66.67,1.95,'1111122,1111122,1111122' 
COMPS,ioos:station:USF.COMPS:TAR:1,2014-06-01T09:12:00Z,28.1560,-82.7580,7.0,0.88,64.79,1.76,'1111122,1111122,1111122' 
COMPS,ioos:station:USF.COMPS:TAR:1,2014-06-01T09:18:00Z,28.1560,-82.7580,7.0,0.83,73.49,1.37,'1111122,1111122,1111122' 
COMPS,ioos:station:USF.COMPS:TAR:1,2014-06-01T09:24:00Z,28.1560,-82.7580,7.0,1.15,90.46,2.45,'1111122,1111122,1111122' 
COMPS,ioos:station:USF.COMPS:TAR:1,2014-06-01T09:30:00Z,28.1560,-82.7580,7.0,1.03,90.31,2.35,'1111122,1111122,1111122' 
COMPS,ioos:station:USF.COMPS:TAR:1,2014-06-01T09:36:00Z,28.1560,-82.7580,7.0,1.06,102.91,2.35,'1111122,1111122,1111122' 
COMPS,ioos:station:USF.COMPS:TAR:1,2014-06-01T09:42:00Z,28.1560,-82.7580,7.0,1.34,92.15,2.15,'1111122,1111122,1111122' 
COMPS,ioos:station:USF.COMPS:TAR:1,2014-06-01T09:48:00Z,28.1560,-82.7580,7.0,1.12,103.33,2.35,'1111122,1111122,1111122' 
COMPS,ioos:station:USF.COMPS:TAR:1,2014-06-01T09:54:00Z,28.1560,-82.7580,7.0,1.05,105.34,1.76,'1111122,1111122,1111122' 
COMPS,ioos:station:USF.COMPS:TAR:1,2014-06-01T10:00:00Z,28.1560,-82.7580,7.0,1.25,85.58,2.35,'1111122,1111122,1111122' 
COMPS,ioos:station:USF.COMPS:TAR:1,2014-06-01T10:06:00Z,28.1560,-82.7580,7.0,1.1,72.4,2.45,'1111122,1111122,1111122' 
COMPS,ioos:station:USF.COMPS:TAR:1,2014-06-01T10:12:00Z,28.1560,-82.7580,7.0,1.24,95.57,2.45,'1111122,1111122,1111122' 
COMPS,ioos:station:USF.COMPS:TAR:1,2014-06-01T10:18:00Z,28.1560,-82.7580,7.0,1.89,94.09,2.64,'1111122,1111122,1111122' 
COMPS,ioos:station:USF.COMPS:TAR:1,2014-06-01T10:24:00Z,28.1560,-82.7580,7.0,1.24,91.03,2.45,'1111122,1111122,1111122' 
COMPS,ioos:station:USF.COMPS:TAR:1,2014-06-01T10:30:00Z,28.1560,-82.7580,7.0,1.29,82.79,2.35,'1111122,1111122,1111122' 
COMPS,ioos:station:USF.COMPS:TAR:1,2014-06-01T10:36:00Z,28.1560,-82.7580,7.0,1.23,85.54,2.64,'1111122,1111122,1111122' 
COMPS,ioos:station:USF.COMPS:TAR:1,2014-06-01T10:42:00Z,28.1560,-82.7580,7.0,1.47,76.18,2.74,'1111122,1111122,1111122' 
COMPS,ioos:station:USF.COMPS:TAR:1,2014-06-01T10:48:00Z,28.1560,-82.7580,7.0,1.96,82.68,3.33,'1111122,1111122,1111122' 
COMPS,ioos:station:USF.COMPS:TAR:1,2014-06-01T10:54:00Z,28.1560,-82.7580,7.0,1.72,86.01,2.64,'1111122,1111122,1111122' 
COMPS,ioos:station:USF.COMPS:TAR:1,2014-06-01T11:00:00Z,28.1560,-82.7580,7.0,1.67,85.71,2.93,'1111122,1111122,1111122' 
COMPS,ioos:station:USF.COMPS:TAR:1,2014-06-01T11:06:00Z,28.1560,-82.7580,7.0,1.54,75.94,3.72,'1111122,1111122,1111122' 
COMPS,ioos:station:USF.COMPS:TAR:1,2014-06-01T11:12:00Z,28.1560,-82.7580,7.0,1.56,80.35,2.74,'1111122,1111122,1111122' 
COMPS,ioos:station:USF.COMPS:TAR:1,2014-06-01T11:18:00Z,28.1560,-82.7580,7.0,1.34,82.67,2.25,'1111122,1111122,1111122' 
COMPS,ioos:station:USF.COMPS:TAR:1,2014-06-01T11:24:00Z,28.1560,-82.7580,7.0,1.47,77.23,3.23,'1111122,1111122,1111122' 
COMPS,ioos:station:USF.COMPS:TAR:1,2014-06-01T11:30:00Z,28.1560,-82.7580,7.0,1.46,87.34,2.35,'1111122,1111122,1111122' 
COMPS,ioos:station:USF.COMPS:TAR:1,2014-06-01T11:36:00Z,28.1560,-82.7580,7.0,1.62,77.75,2.74,'1111122,1111122,1111122' 
COMPS,ioos:station:USF.COMPS:TAR:1,2014-06-01T11:42:00Z,28.1560,-82.7580,7.0,1.68,67.69,3.03,'1111122,1111122,1111122' 
COMPS,ioos:station:USF.COMPS:TAR:1,2014-06-01T11:48:00Z,28.1560,-82.7580,7.0,1.57,73.17,3.42,'1111122,1111122,1111122' 
COMPS,ioos:station:USF.COMPS:TAR:1,2014-06-01T11:54:00Z,28.1560,-82.7580,7.0,1.78,77.56,2.74,'1111122,1111122,1111122' 
COMPS,ioos:station:USF.COMPS:TAR:1,2014-06-01T12:00:00Z,28.1560,-82.7580,7.0,1.73,84.47,3.42,'1111122,1111122,1111122' 
COMPS,ioos:station:USF.COMPS:TAR:1,2014-06-01T12:06:00Z,28.1560,-82.7580,7.0,1.17,84.34,2.15,'1111122,1111122,1111122' 
COMPS,ioos:station:USF.COMPS:TAR:1,2014-06-01T12:12:00Z,28.1560,-82.7580,7.0,1.61,68.24,2.64,'1111122,1111122,1111122' 
COMPS,ioos:station:USF.COMPS:TAR:1,2014-06-01T12:18:00Z,28.1560,-82.7580,7.0,1.5,77.12,3.42,'1111122,1111122,1111122' 
COMPS,ioos:station:USF.COMPS:TAR:1,2014-06-01T12:24:00Z,28.1560,-82.7580,7.0,1.87,74.14,3.62,'1111122,1111122,1111122' 
COMPS,ioos:station:USF.COMPS:TAR:1,2014-06-01T12:30:00Z,28.1560,-82.7580,7.0,1.45,75.2,3.23,'1111122,1111122,1111122' 
COMPS,ioos:station:USF.COMPS:TAR:1,2014-06-01T12:36:00Z,28.1560,-82.7580,7.0,1.3,64.18,3.03,'1111122,1111122,1111122' 
COMPS,ioos:station:USF.COMPS:TAR:1,2014-06-01T12:42:00Z,28.1560,-82.7580,7.0,1.28,74.47,2.35,'1111122,1111122,1111122' 
COMPS,ioos:station:USF.COMPS:TAR:1,2014-06-01T12:48:00Z,28.1560,-82.7580,7.0,1.63,60.92,3.03,'1111122,1111122,1111122' 
COMPS,ioos:station:USF.COMPS:TAR:1,2014-06-01T12:54:00Z,28.1560,-82.7580,7.0,1.96,49.53,3.33,'1111122,1111122,1111122' 
COMPS,ioos:station:USF.COMPS:TAR:1,2014-06-01T13:00:00Z,28.1560,-82.7580,7.0,1.18,53.41,3.33,'1111122,1111122,1111122' 
COMPS,ioos:station:USF.COMPS:TAR:1,2014-06-01T13:06:00Z,28.1560,-82.7580,7.0,1.62,56.44,2.84,'1111122,1111122,1111122' 
COMPS,ioos:station:USF.COMPS:TAR:1,2014-06-01T13:12:00Z,28.1560,-82.7580,7.0,1.53,70.48,2.93,'1111122,1111122,1111122' 
COMPS,ioos:station:USF.COMPS:TAR:1,2014-06-01T13:18:00Z,28.1560,-82.7580,7.0,1.54,91.88,3.03,'1111122,1111122,1111122' 
COMPS,ioos:station:USF.COMPS:TAR:1,2014-06-01T13:24:00Z,28.1560,-82.7580,7.0,1.93,92.13,3.33,'1111122,1111122,1111122' 
COMPS,ioos:station:USF.COMPS:TAR:1,2014-06-01T13:30:00Z,28.1560,-82.7580,7.0,1.42,95.19,2.64,'1111122,1111122,1111122' 
COMPS,ioos:station:USF.COMPS:TAR:1,2014-06-01T13:36:00Z,28.1560,-82.7580,7.0,1.8,83.76,2.93,'1111122,1111122,1111122' 
COMPS,ioos:station:USF.COMPS:TAR:1,2014-06-01T13:42:00Z,28.1560,-82.7580,7.0,1.55,75.14,2.84,'1111122,1111122,1111122' 
COMPS,ioos:station:USF.COMPS:TAR:1,2014-06-01T13:48:00Z,28.1560,-82.7580,7.0,1.47,68.77,2.45,'1111122,1111122,1111122' 
COMPS,ioos:station:USF.COMPS:TAR:1,2014-06-01T13:54:00Z,28.1560,-82.7580,7.0,1.76,54.47,3.42,'1111122,1111122,1111122' 
COMPS,ioos:station:USF.COMPS:TAR:1,2014-06-01T14:00:00Z,28.1560,-82.7580,7.0,1.87,80.76,3.72,'1111122,1111122,1111122' 
COMPS,ioos:station:USF.COMPS:TAR:1,2014-06-01T14:06:00Z,28.1560,-82.7580,7.0,1.3,73.27,2.64,'1111122,1111122,1111122' 
COMPS,ioos:station:USF.COMPS:TAR:1,2014-06-01T14:12:00Z,28.1560,-82.7580,7.0,1.48,88.42,3.13,'1111122,1111122,1111122' 
COMPS,ioos:station:USF.COMPS:TAR:1,2014-06-01T14:18:00Z,28.1560,-82.7580,7.0,1.98,61.69,4.21,'1111122,1111122,1111122' 
COMPS,ioos:station:USF.COMPS:TAR:1,2014-06-01T14:24:00Z,28.1560,-82.7580,7.0,1.98,82.21,3.52,'1111122,1111122,1111122' 
COMPS,ioos:station:USF.COMPS:TAR:1,2014-06-01T14:30:00Z,28.1560,-82.7580,7.0,1.39,75.1,2.93,'1111122,1111122,1111122' 
COMPS,ioos:station:USF.COMPS:TAR:1,2014-06-01T14:36:00Z,28.1560,-82.7580,7.0,2.28,60.47,4.99,'1111122,1111122,1111122' 
COMPS,ioos:station:USF.COMPS:TAR:1,2014-06-01T14:42:00Z,28.1560,-82.7580,7.0,2.07,73.92,3.42,'1111122,1111122,1111122' 
COMPS,ioos:station:USF.COMPS:TAR:1,2014-06-01T14:48:00Z,28.1560,-82.7580,7.0,1.88,63.02,4.21,'1111122,1111122,1111122' 
COMPS,ioos:station:USF.COMPS:TAR:1,2014-06-01T14:54:00Z,28.1560,-82.7580,7.0,2.17,98.73,3.91,'1111122,1111122,1111122' 
COMPS,ioos:station:USF.COMPS:TAR:1,2014-06-01T15:00:00Z,28.1560,-82.7580,7.0,1.67,66.5,4.11,'1111122,1111122,1111122' 
COMPS,ioos:station:USF.COMPS:TAR:1,2014-06-01T15:06:00Z,28.1560,-82.7580,7.0,2.57,42.34,4.31,'1111122,1111122,1111122' 
COMPS,ioos:station:USF.COMPS:TAR:1,2014-06-01T15:12:00Z,28.1560,-82.7580,7.0,1.74,73.66,3.82,'1111122,1111122,1111122' 
COMPS,ioos:station:USF.COMPS:TAR:1,2014-06-01T15:18:00Z,28.1560,-82.7580,7.0,2.05,104.64,4.41,'1111122,1111122,1111122' 
COMPS,ioos:station:USF.COMPS:TAR:1,2014-06-01T15:24:00Z,28.1560,-82.7580,7.0,1.55,90.11,3.03,'1111122,1111122,1111122' 
COMPS,ioos:station:USF.COMPS:TAR:1,2014-06-01T15:30:00Z,28.1560,-82.7580,7.0,1.94,76.56,3.62,'1111122,1111122,1111122' 
COMPS,ioos:station:USF.COMPS:TAR:1,2014-06-01T15:36:00Z,28.1560,-82.7580,7.0,1.94,85.65,3.33,'1111122,1111122,1111122' 
COMPS,ioos:station:USF.COMPS:TAR:1,2014-06-01T15:42:00Z,28.1560,-82.7580,7.0,2.12,86.73,4.5,'1111122,1111122,1111122' 
COMPS,ioos:station:USF.COMPS:TAR:1,2014-06-01T15:48:00Z,28.1560,-82.7580,7.0,1.84,85.46,3.62,'1111122,1111122,1111122' 
COMPS,ioos:station:USF.COMPS:TAR:1,2014-06-01T15:54:00Z,28.1560,-82.7580,7.0,1.49,107.99,3.91,'1111122,1111122,1111122' 
COMPS,ioos:station:USF.COMPS:TAR:1,2014-06-01T16:00:00Z,28.1560,-82.7580,7.0,1.65,116.39,3.82,'1111122,1111122,1111122' 
COMPS,ioos:station:USF.COMPS:TAR:1,2014-06-01T16:06:00Z,28.1560,-82.7580,7.0,1.62,99.72,3.13,'1111122,1111122,1111122' 
COMPS,ioos:station:USF.COMPS:TAR:1,2014-06-01T16:12:00Z,28.1560,-82.7580,7.0,1.55,97.26,3.52,'1111122,1111122,1111122' 
COMPS,ioos:station:USF.COMPS:TAR:1,2014-06-01T16:18:00Z,28.1560,-82.7580,7.0,1.11,86.64,3.23,'1111122,1111122,1111122' 
COMPS,ioos:station:USF.COMPS:TAR:1,2014-06-01T16:24:00Z,28.1560,-82.7580,7.0,2.35,111.83,4.8,'1111122,1111122,1111122' 
COMPS,ioos:station:USF.COMPS:TAR:1,2014-06-01T16:30:00Z,28.1560,-82.7580,7.0,2.25,88.51,5.58,'1111122,1111122,1111122' 
COMPS,ioos:station:USF.COMPS:TAR:1,2014-06-01T16:36:00Z,28.1560,-82.7580,7.0,2.15,82.45,4.5,'1111122,1111122,1111122' 
COMPS,ioos:station:USF.COMPS:TAR:1,2014-06-01T16:42:00Z,28.1560,-82.7580,7.0,2.36,107.35,4.41,'1111122,1111122,1111122' 
COMPS,ioos:station:USF.COMPS:TAR:1,2014-06-01T16:48:00Z,28.1560,-82.7580,7.0,1.54,113.43,3.91,'1111122,1111122,1111122' 
COMPS,ioos:station:USF.COMPS:TAR:1,2014-06-01T16:54:00Z,28.1560,-82.7580,7.0,2.47,58.17,5.19,'1111122,1111122,1111122' 
COMPS,ioos:station:USF.COMPS:TAR:1,2014-06-01T17:00:00Z,28.1560,-82.7580,7.0,2.86,51.5,4.6,'1111122,1111122,1111122' 
COMPS,ioos:station:USF.COMPS:TAR:1,2014-06-01T17:06:00Z,28.1560,-82.7580,7.0,2.02,62.02,3.91,'1111122,1111122,1111122' 
COMPS,ioos:station:USF.COMPS:TAR:1,2014-06-01T17:12:00Z,28.1560,-82.7580,7.0,1.9,64.64,4.7,'1111122,1111122,1111122' 
COMPS,ioos:station:USF.COMPS:TAR:1,2014-06-01T17:18:00Z,28.1560,-82.7580,7.0,2.27,64.6,4.21,'1111122,1111122,1111122' 
COMPS,ioos:station:USF.COMPS:TAR:1,2014-06-01T17:24:00Z,28.1560,-82.7580,7.0,2.52,51.22,5.29,'1111122,1111122,1111122' 
COMPS,ioos:station:USF.COMPS:TAR:1,2014-06-01T17:30:00Z,28.1560,-82.7580,7.0,2.25,51.07,5.29,'1111122,1111122,1111122' 
COMPS,ioos:station:USF.COMPS:TAR:1,2014-06-01T17:36:00Z,28.1560,-82.7580,7.0,2.68,49.4,4.6,'1111122,1111122,1111122' 
COMPS,ioos:station:USF.COMPS:TAR:1,2014-06-01T17:42:00Z,28.1560,-82.7580,7.0,2.71,53.72,4.9,'1111122,1111122,1111122' 
COMPS,ioos:station:USF.COMPS:TAR:1,2014-06-01T17:48:00Z,28.1560,-82.7580,7.0,2.56,58.5,4.8,'1111122,1111122,1111122' 
COMPS,ioos:station:USF.COMPS:TAR:1,2014-06-01T17:54:00Z,28.1560,-82.7580,7.0,3.28,44.91,5.97,'1111122,1111122,1111122' 
COMPS,ioos:station:USF.COMPS:TAR:1,2014-06-01T18:00:00Z,28.1560,-82.7580,7.0,2.34,85.87,3.91,'1111122,1111122,1111122' 
COMPS,ioos:station:USF.COMPS:TAR:1,2014-06-01T18:06:00Z,28.1560,-82.7580,7.0,2.01,78.13,5.09,'1111122,1111122,1111122' 
COMPS,ioos:station:USF.COMPS:TAR:1,2014-06-01T18:12:00Z,28.1560,-82.7580,7.0,2.72,92.13,5.09,'1111122,1111122,1111122' 
COMPS,ioos:station:USF.COMPS:TAR:1,2014-06-01T18:18:00Z,28.1560,-82.7580,7.0,2.43,109.92,3.72,'1111122,1111122,1111122' 
COMPS,ioos:station:USF.COMPS:TAR:1,2014-06-01T18:24:00Z,28.1560,-82.7580,7.0,2.28,76.24,6.07,'1111122,1111122,1111122' 
COMPS,ioos:station:USF.COMPS:TAR:1,2014-06-01T18:30:00Z,28.1560,-82.7580,7.0,3.15,43.4,4.7,'1111122,1111122,1111122' 
COMPS,ioos:station:USF.COMPS:TAR:1,2014-06-01T18:36:00Z,28.1560,-82.7580,7.0,2.36,54.1,4.21,'1111122,1111122,1111122' 
COMPS,ioos:station:USF.COMPS:TAR:1,2014-06-01T18:42:00Z,28.1560,-82.7580,7.0,2.76,82.38,5.39,'1111122,1111122,1111122' 
COMPS,ioos:station:USF.COMPS:TAR:1,2014-06-01T18:48:00Z,28.1560,-82.7580,7.0,2.27,60.14,5.78,'1111122,1111122,1111122' 
COMPS,ioos:station:USF.COMPS:TAR:1,2014-06-01T18:54:00Z,28.1560,-82.7580,7.0,2.35,65.06,4.01,'1111122,1111122,1111122' 
COMPS,ioos:station:USF.COMPS:TAR:1,2014-06-01T19:00:00Z,28.1560,-82.7580,7.0,2.38,94.57,4.21,'1111122,1111122,1111122' 
COMPS,ioos:station:USF.COMPS:TAR:1,2014-06-01T19:06:00Z,28.1560,-82.7580,7.0,1.68,73.36,3.03,'1111122,1111122,1111122' 
COMPS,ioos:station:USF.COMPS:TAR:1,2014-06-01T19:12:00Z,28.1560,-82.7580,7.0,2.13,48.79,4.11,'1111122,1111122,1111122' 
COMPS,ioos:station:USF.COMPS:TAR:1,2014-06-01T19:18:00Z,28.1560,-82.7580,7.0,2.7,59.87,6.46,'1111122,1111122,1111122' 
COMPS,ioos:station:USF.COMPS:TAR:1,2014-06-01T19:24:00Z,28.1560,-82.7580,7.0,1.92,74.69,4.7,'1111122,1111122,1111122' 
COMPS,ioos:station:USF.COMPS:TAR:1,2014-06-01T19:30:00Z,28.1560,-82.7580,7.0,2.12,105.14,3.62,'1111122,1111122,1111122' 
COMPS,ioos:station:USF.COMPS:TAR:1,2014-06-01T19:36:00Z,28.1560,-82.7580,7.0,2.06,93.58,3.91,'1111122,1111122,1111122' 
COMPS,ioos:station:USF.COMPS:TAR:1,2014-06-01T19:42:00Z,28.1560,-82.7580,7.0,2.3,90.41,5.29,'1111122,1111122,1111122' 
COMPS,ioos:station:USF.COMPS:TAR:1,2014-06-01T19:48:00Z,28.1560,-82.7580,7.0,2.79,99.08,5.19,'1111122,1111122,1111122' 